Location: Kelshall
(52.0000°N, 0.0500°W)
Time: 13:25:36
(UTC+00:00)

USA 229 - Pass Details

Date: 18 September 2020
Orbit: 973 x 1239 km, 63.4° (Epoch: 14 October)

Event Time Altitude Azimuth Distance (km) Brightness Sun altitude
Rises 18:40:34 0° 241° (WSW) 3,715 7.5 -6.0°
Reaches altitude 10° 18:43:08 10° 246° (WSW) 2,793 6.9 -6.3°
Maximum altitude 18:49:38 59° 325° (NW) 1,208 4.3 -7.3°
Drops below altitude 10° 18:56:36 10° 45° (NE) 2,982 5.7 -8.4°
Sets 18:59:26 0° 49° (NE) 3,984 6.3 -8.8°
